Location: Pine Creek
(45.5072°N, 110.5649°W)
Time: 05:23:13
(UTC+00:00)

Envisat - Pass Details

Date: 23 January 2022
Orbit: 764 x 765 km, 98.2° (Epoch: 22 May)

Event Time Altitude Azimuth Distance (km) Brightness Sun altitude
Rises 12:49:14 0° 9° (N) 3,241 6.3 -21.4°
Reaches altitude 10° 12:51:36 10° 5° (N) 2,311 5.5 -21.0°
Maximum altitude 12:56:32 54° 289° (WNW) 933 3.0 -20.2°
Drops below altitude 10° 13:01:27 10° 213° (SSW) 2,296 5.2 -19.3°
Sets 13:03:47 0° 209° (SSW) 3,218 6.0 -18.9°
